Location: Unspecified
(42.3650°N, 71.1030°W)
Time: 09:37:39
(UTC+00:00)

Transit 4A - Visible Passes

Search period start: 12 May 2025 00:00
Search period end: 22 May 2025 00:00
Orbit: 864 x 977 km, 66.8° (Epoch: 11 May)

Date Brightness Start Highest point End Pass type
(mag) Time Alt. Az. Time Alt. Az. Time Alt. Az.
12 May 8.9 01:36:08 10° SW 01:42:20 52° NW 01:48:30 10° NNE visible
12 May 10.9 03:27:06 10° WNW 03:30:12 14° NNW 03:33:16 10° N visible
12 May 11.3 07:09:02 10° NNE 07:09:42 10° NNE 07:10:23 10° NNE visible
12 May 9.7 08:52:23 10° NNW 08:58:00 37° NE 09:03:26 10° ESE visible
13 May 9.5 01:45:28 10° WSW 01:51:21 38° NW 01:57:11 10° NNE visible
13 May 11.2 03:38:12 10° NW 03:39:37 11° NNW 03:41:00 10° NNW visible
13 May 11.0 07:16:23 10° N 07:19:08 13° NNE 07:21:50 10° ENE visible
14 May 10.1 01:55:02 10° WSW 02:00:27 28° NW 02:05:47 10° NNE visible
14 May 10.9 07:24:38 10° N 07:28:28 17° NE 07:32:14 10° ENE visible
15 May 10.6 02:04:51 10° W 02:09:36 21° NW 02:14:19 10° N visible
15 May 10.5 07:33:04 10° N 07:37:43 22° NE 07:42:15 10° E visible
16 May 8.5 00:24:59 10° SW 00:31:20 67° WNW 00:37:37 10° NNE visible
16 May 10.9 02:15:00 10° WNW 02:18:52 17° NW 02:22:44 10° N visible
16 May 10.0 07:41:37 10° NNW 07:46:52 29° NE 07:51:58 10° ESE visible
17 May 9.2 00:34:09 10° SW 00:40:16 48° NW 00:46:21 10° NNE visible
17 May 11.2 02:25:30 10° NW 02:28:13 13° NNW 02:30:56 10° N visible
17 May 11.2 06:06:19 10° NNE 06:07:45 11° NNE 06:09:11 10° NE visible
17 May 9.3 07:50:14 10° NNW 07:55:56 40° NE 08:01:26 10° ESE visible
18 May 9.9 00:43:32 10° WSW 00:49:18 35° NW 00:55:00 10° NNE visible
18 May 10.9 06:14:07 10° N 06:17:09 14° NNE 06:20:08 10° ENE visible
18 May 8.6 07:58:57 10° NNW 08:04:55 56° NE 08:10:40 10° SE visible
19 May 10.4 00:53:10 10° W 00:58:24 26° NW 01:03:36 10° NNE visible
19 May 10.6 06:22:24 10° N 06:26:27 18° NE 06:30:25 10° E visible
19 May 8.0 08:07:43 10° NNW 08:13:48 80° ENE 08:19:39 10° SSE visible
20 May 10.8 01:03:04 10° W 01:07:36 20° NW 01:12:05 10° N visible
20 May 10.2 06:30:52 10° N 06:35:40 24° NE 06:40:21 10° E visible
20 May 7.8 08:16:36 10° NW 08:22:36 72° WSW 08:28:25 10° SSE visible
21 May 10.9 01:13:17 10° WNW 01:16:53 15° NW 01:20:27 10° N visible
21 May 9.6 06:39:26 10° NNW 06:44:48 32° NE 06:50:01 10° ESE visible
21 May 8.0 08:25:35 10° NW 08:31:20 48° WSW 08:36:55 10° S visible
